TimeCST,TemperatureF,Dew PointF,Humidity,Sea Level PressureIn,VisibilityMPH,Wind Direction,Wind SpeedMPH,Gust SpeedMPH,PrecipitationIn,Events,Conditions,WindDirDegrees,DateUTC
12:15 AM,-18.4,-23.8,76,30.39,10.0,Calm,Calm,-,N/A,,Clear,0,2014-01-03 06:15:00
12:35 AM,-19.3,-24.7,76,30.39,10.0,Calm,Calm,-,N/A,,Clear,0,2014-01-03 06:35:00
12:55 AM,-18.8,-24.0,77,30.39,10.0,Calm,Calm,-,N/A,,Clear,0,2014-01-03 06:55:00
1:15 AM,-20.2,-26.3,73,30.39,10.0,Calm,Calm,-,N/A,,Clear,0,2014-01-03 07:15:00
1:35 AM,-20.2,-26.0,75,30.39,10.0,Calm,Calm,-,N/A,,Clear,0,2014-01-03 07:35:00
1:55 AM,-20.6,-26.5,74,30.39,10.0,Calm,Calm,-,N/A,,Clear,0,2014-01-03 07:55:00
2:15 AM,-20.4,-26.1,75,30.39,10.0,Calm,Calm,-,N/A,,Clear,0,2014-01-03 08:15:00
2:35 AM,-20.4,-26.3,74,30.39,10.0,Calm,Calm,-,N/A,,Clear,0,2014-01-03 08:35:00
2:55 AM,-20.7,-26.7,74,30.39,10.0,Calm,Calm,-,N/A,,Clear,0,2014-01-03 08:55:00
3:15 AM,-21.3,-27.4,73,30.37,10.0,Calm,Calm,-,N/A,,Clear,0,2014-01-03 09:15:00
3:35 AM,-21.1,-27.2,73,30.35,10.0,Calm,Calm,-,N/A,,Clear,0,2014-01-03 09:35:00
3:55 AM,-21.1,-27.0,74,30.34,10.0,Calm,Calm,-,N/A,,Clear,0,2014-01-03 09:55:00
4:15 AM,-20.9,-26.7,75,30.34,10.0,Calm,Calm,-,N/A,,Clear,0,2014-01-03 10:15:00
4:35 AM,-20.9,-27.0,73,30.33,10.0,Calm,Calm,-,N/A,,Clear,0,2014-01-03 10:35:00
4:55 AM,-21.1,-27.2,73,30.32,10.0,Calm,Calm,-,N/A,,Clear,0,2014-01-03 10:55:00
5:15 AM,-21.1,-27.4,73,30.32,10.0,Calm,Calm,-,N/A,,Clear,0,2014-01-03 11:15:00
5:35 AM,-20.9,-27.0,73,30.31,10.0,Calm,Calm,-,N/A,,Clear,0,2014-01-03 11:35:00
5:55 AM,-20.2,-26.1,74,30.31,10.0,Calm,Calm,-,N/A,,Clear,0,2014-01-03 11:55:00
6:15 AM,-18.8,-24.5,75,30.30,10.0,Calm,Calm,-,N/A,,Mostly Cloudy,0,2014-01-03 12:15:00
6:35 AM,-17.7,-23.4,75,30.27,10.0,Calm,Calm,-,N/A,,Scattered Clouds,0,2014-01-03 12:35:00
6:55 AM,-15.5,-20.7,77,30.27,10.0,Calm,Calm,-,N/A,,Scattered Clouds,0,2014-01-03 12:55:00
7:15 AM,-13.5,-18.4,79,30.26,10.0,Calm,Calm,-,N/A,,Mostly Cloudy,0,2014-01-03 13:15:00
7:35 AM,-11.6,-16.4,79,30.24,10.0,Calm,Calm,-,N/A,,Mostly Cloudy,0,2014-01-03 13:35:00
7:55 AM,-8.7,-13.2,81,30.22,10.0,Calm,Calm,-,N/A,,Overcast,0,2014-01-03 13:55:00
8:15 AM,-4.9,-8.9,83,30.22,10.0,Calm,Calm,-,N/A,,Overcast,0,2014-01-03 14:15:00
8:35 AM,3.9,-1.8,77,30.22,10.0,South,9.2,-,N/A,,Overcast,190,2014-01-03 14:35:00
8:55 AM,5.0,-3.5,68,30.21,10.0,South,9.2,-,N/A,,Overcast,180,2014-01-03 14:55:00
9:15 AM,5.5,-3.5,66,30.19,10.0,South,9.2,-,N/A,,Overcast,180,2014-01-03 15:15:00
9:35 AM,5.9,-3.8,64,30.19,10.0,SSW,9.2,16.1,N/A,,Overcast,200,2014-01-03 15:35:00
9:55 AM,6.6,-4.7,60,30.17,10.0,South,16.1,19.6,N/A,,Overcast,180,2014-01-03 15:55:00
10:15 AM,6.8,-4.5,60,30.16,10.0,South,10.4,17.3,N/A,,Overcast,190,2014-01-03 16:15:00
10:35 AM,7.5,-2.7,63,30.14,10.0,South,15.0,19.6,N/A,,Mostly Cloudy,180,2014-01-03 16:35:00
10:55 AM,8.6,-1.5,64,30.11,10.0,South,11.5,19.6,N/A,,Scattered Clouds,190,2014-01-03 16:55:00
11:15 AM,10.4,-0.4,62,30.09,10.0,SSW,13.8,27.6,N/A,,Clear,200,2014-01-03 17:15:00
11:35 AM,11.5,0.3,61,30.06,10.0,South,13.8,23.0,N/A,,Clear,190,2014-01-03 17:35:00
11:55 AM,12.2,0.9,60,30.03,10.0,South,12.7,19.6,N/A,,Scattered Clouds,180,2014-01-03 17:55:00
12:15 PM,12.2,1.0,61,30.00,10.0,South,13.8,26.5,N/A,,Overcast,180,2014-01-03 18:15:00
12:35 PM,12.6,1.2,61,29.97,10.0,South,16.1,21.9,N/A,,Overcast,170,2014-01-03 18:35:00
12:55 PM,12.6,1.8,62,29.96,10.0,South,13.8,27.6,N/A,,Overcast,170,2014-01-03 18:55:00
1:15 PM,13.1,1.6,60,29.94,10.0,South,10.4,16.1,N/A,,Overcast,170,2014-01-03 19:15:00
1:35 PM,13.5,1.9,60,29.91,10.0,South,16.1,26.5,N/A,,Overcast,180,2014-01-03 19:35:00
1:55 PM,14.4,2.7,60,29.89,10.0,South,16.1,24.2,N/A,,Overcast,180,2014-01-03 19:55:00
2:15 PM,14.9,2.3,57,29.87,10.0,South,15.0,26.5,N/A,,Mostly Cloudy,190,2014-01-03 20:15:00
2:35 PM,14.9,3.2,60,29.86,10.0,South,11.5,27.6,N/A,,Overcast,180,2014-01-03 20:35:00
2:55 PM,14.9,3.9,62,29.83,10.0,South,16.1,28.8,N/A,,Scattered Clouds,170,2014-01-03 20:55:00
3:15 PM,16.7,4.8,60,29.82,10.0,South,13.8,19.6,N/A,,Clear,190,2014-01-03 21:15:00
3:35 PM,17.4,5.4,59,29.82,10.0,South,11.5,24.2,N/A,,Clear,180,2014-01-03 21:35:00
3:55 PM,17.1,6.1,62,29.81,10.0,South,16.1,20.7,N/A,,Clear,190,2014-01-03 21:55:00
4:15 PM,16.9,6.4,64,29.80,10.0,South,11.5,18.4,N/A,,Clear,190,2014-01-03 22:15:00
4:35 PM,16.7,6.8,65,29.79,10.0,South,12.7,20.7,N/A,,Clear,180,2014-01-03 22:35:00
5:15 PM,17.2,7.7,66,29.75,10.0,South,10.4,17.3,N/A,,Clear,180,2014-01-03 23:15:00
5:16 PM,17.6,8.6,68,29.75,10.0,South,9.2,-,N/A,,Clear,180,2014-01-03 23:16:00
5:35 PM,17.6,8.2,67,29.75,10.0,South,8.1,17.3,N/A,,Clear,190,2014-01-03 23:35:00
5:55 PM,18.0,8.6,67,29.75,10.0,SSW,10.4,18.4,N/A,,Clear,200,2014-01-03 23:55:00
6:15 PM,18.1,9.1,68,29.74,10.0,South,10.4,-,N/A,,Clear,190,2014-01-04 00:15:00
6:35 PM,18.5,9.5,68,29.73,10.0,South,12.7,21.9,N/A,,Clear,180,2014-01-04 00:35:00
6:55 PM,18.1,9.3,68,29.72,10.0,South,11.5,-,N/A,,Clear,180,2014-01-04 00:55:00
7:15 PM,18.3,9.5,68,29.73,10.0,South,10.4,16.1,N/A,,Clear,190,2014-01-04 01:15:00
7:35 PM,18.3,9.5,68,29.72,10.0,South,10.4,18.4,N/A,,Clear,190,2014-01-04 01:35:00
7:55 PM,18.5,9.7,68,29.71,10.0,South,15.0,20.7,N/A,,Clear,190,2014-01-04 01:55:00
8:15 PM,18.5,10.2,70,29.72,10.0,SSW,8.1,-,N/A,,Clear,200,2014-01-04 02:15:00
8:35 PM,19.0,10.4,69,29.70,10.0,South,6.9,19.6,N/A,,Clear,190,2014-01-04 02:35:00
8:55 PM,19.4,10.9,70,29.70,10.0,South,13.8,18.4,N/A,,Clear,190,2014-01-04 02:55:00
9:15 PM,19.9,11.3,69,29.69,10.0,SSW,12.7,21.9,N/A,,Clear,200,2014-01-04 03:15:00
9:35 PM,20.3,11.7,69,29.69,10.0,SSW,13.8,24.2,N/A,,Scattered Clouds,200,2014-01-04 03:35:00
9:55 PM,20.5,11.7,69,29.68,10.0,South,9.2,20.7,N/A,,Clear,190,2014-01-04 03:55:00
10:15 PM,20.7,11.8,69,29.67,10.0,South,13.8,20.7,N/A,,Clear,190,2014-01-04 04:15:00
10:35 PM,21.2,12.2,68,29.68,10.0,SSW,9.2,20.7,N/A,,Clear,200,2014-01-04 04:35:00
10:55 PM,21.0,12.2,69,29.65,10.0,SSW,13.8,21.9,N/A,,Clear,210,2014-01-04 04:55:00
11:15 PM,21.2,12.4,69,29.64,10.0,SSW,11.5,20.7,N/A,,Clear,200,2014-01-04 05:15:00
11:35 PM,21.7,12.7,68,29.62,10.0,South,16.1,26.5,N/A,,Clear,190,2014-01-04 05:35:00
11:55 PM,21.9,12.9,68,29.62,10.0,SSW,11.5,20.7,N/A,,Clear,200,2014-01-04 05:55:00